This demonstration page uses our WeatherBlox Daily Observations layout. Learn more.

Left ArrowRight Arrow

40.92945, -100.16068

Hourly Observations for October 24, 2021

Temp ( °F °C ) Dew Point ( °F °C ) Humidity (%) Winds ( mph kmh ) Pressure ( in mb ) Visibility ( mi km ) Precip ( " mm )
12:15 am 00:15 Cloudy with Drizzle 50 9.9 49 9.3 96 96 ENE 6 9 29.71 1006 3 4 N/A
12:35 am 00:35 Cloudy with Mist and Fog 50 9.8 49 9.4 97 97 NNE 6 9 29.71 1006 3 4 N/A
12:55 am 00:55 Cloudy with Light Rain 50 9.8 49 9.5 98 98 N 7 11 29.71 1006 2 3 N/A
1:15 am 01:15 Cloudy with Drizzle 50 9.8 49 9.5 98 98 N 8 13 29.72 1007 2 3 0.01 0.25
1:35 am 01:35 Cloudy with Drizzle 49 9.6 49 9.2 97 97 N 7 11 29.73 1007 3 4 0.01 0.25
1:55 am 01:55 Cloudy with Drizzle 49 9.3 48 8.9 97 97 NNE 12 19 29.74 1007 3 5 0.01 0.25
2:15 am 02:15 Cloudy 48 9 47 8.5 97 97 NNE 9 15 29.71 1006 7 11 N/A
2:35 am 02:35 Cloudy 48 8.9 47 8.3 96 96 N 6 9 29.72 1006 10 16 N/A
2:55 am 02:55 Cloudy 48 9 47 8.2 95 95 N 8 13 29.71 1006 10 16 N/A
3:15 am 03:15 Cloudy 48 9 46 8 94 94 NNE 7 11 29.71 1006 10 16 N/A
3:35 am 03:35 Cloudy 48 8.8 46 7.8 94 94 NNE 8 13 29.70 1006 10 16 N/A
3:55 am 03:55 Cloudy 48 8.7 46 7.6 93 93 N 9 15 29.70 1006 10 16 N/A
4:15 am 04:15 Cloudy 48 8.8 46 7.5 92 92 NNE 9 15 29.70 1006 10 16 N/A
4:35 am 04:35 Cloudy 48 8.8 46 7.5 92 92 NNE 12 19 29.69 1005 10 16 N/A
4:55 am 04:55 Cloudy 48 8.8 45 7.4 91 91 NNE 9 15 29.70 1006 10 16 N/A
5:15 am 05:15 Cloudy 48 8.8 45 7.4 91 91 NNE 9 15 29.69 1005 10 16 N/A
5:35 am 05:35 Cloudy 47 8.6 45 7.2 91 91 N 10 17 29.69 1006 10 16 N/A
5:55 am 05:55 Cloudy 47 8.6 45 7.1 90 90 N 9 15 29.70 1006 10 16 N/A
6:15 am 06:15 Cloudy 47 8.5 44 6.9 90 90 NNE 13 20 29.69 1006 10 16 N/A
6:35 am 06:35 Partly Cloudy 47 8.3 44 6.6 89 89 ENE 14 22 29.69 1005 10 16 N/A
6:55 am 06:55 Partly Cloudy 47 8.1 44 6.6 90 90 NNW 9 15 29.72 1006 10 16 N/A
7:15 am 07:15 Mostly Cloudy 46 8 44 6.5 90 90 ENE 12 19 29.71 1006 10 16 N/A
7:35 am 07:35 Partly Cloudy 46 7.7 44 6.5 92 92 NW 9 15 29.74 1007 7 11 N/A
7:55 am 07:55 Mostly Cloudy 46 8 44 6.6 91 91 NW 9 15 29.75 1007 10 16 N/A
8:15 am 08:15 Cloudy 46 8 43 6.3 89 89 NNW 9 15 29.76 1008 10 16 N/A
8:35 am 08:35 Cloudy 46 8 43 6.2 89 89 N 8 13 29.77 1008 10 16 N/A
8:55 am 08:55 Cloudy 46 7.8 43 6.3 90 90 NNW 8 13 29.77 1008 10 16 N/A
9:15 am 09:15 Partly Cloudy 46 7.9 43 6 88 88 NNW 12 19 29.78 1008 10 16 N/A
9:35 am 09:35 Sunny 46 8 44 6.5 90 90 NW 7 11 29.78 1008 10 16 N/A
9:55 am 09:55 Sunny 47 8.3 44 6.6 89 89 NW 10 17 29.78 1008 10 16 N/A
10:15 am 10:15 Sunny 48 8.7 44 6.8 88 88 NNW 12 19 29.76 1008 10 16 N/A
10:35 am 10:35 Sunny 48 9 44 6.9 87 87 NW 14 22 29.76 1008 10 16 N/A
10:55 am 10:55 Sunny 49 9.7 45 7.2 85 85 WNW 17 28 29.76 1008 10 16 N/A
11:15 am 11:15 Sunny 50 10.2 45 7.1 81 81 NW 14 22 29.75 1007 10 16 N/A
11:35 am 11:35 Sunny 54 12 45 7.4 74 74 NW 16 26 29.73 1007 10 16 N/A
11:55 am 11:55 Sunny 55 12.9 46 7.6 70 70 NW 15 24 29.73 1007 10 16 N/A
12:15 pm 12:15 Sunny 58 14.2 46 7.9 66 66 NW 15 24 29.72 1007 10 16 N/A
12:35 pm 12:35 Sunny 60 15.3 46 7.9 62 62 NW 17 28 29.71 1006 10 16 N/A
12:55 pm 12:55 Sunny 61 16.1 46 7.7 58 58 NW 17 28 29.71 1006 10 16 N/A
1:15 pm 13:15 Sunny 63 17.3 46 7.8 54 54 NNW 20 31 29.70 1006 10 16 N/A
1:35 pm 13:35 Sunny 65 18.1 46 7.8 51 51 NW 18 30 29.68 1005 10 16 N/A
1:55 pm 13:55 Sunny 65 18.4 45 7.2 48 48 NNW 20 31 29.67 1005 10 16 N/A
2:15 pm 14:15 Sunny 66 18.7 45 7 47 47 NNW 23 37 29.67 1005 10 16 N/A
2:35 pm 14:35 Sunny 66 19 46 7.5 47 47 NNW 20 31 29.67 1005 10 16 N/A
2:55 pm 14:55 Sunny 66 19 45 7 46 46 NW 21 33 29.67 1005 10 16 N/A
3:15 pm 15:15 Sunny 65 18.6 43 6 44 44 NW 21 33 29.68 1005 10 16 N/A
3:35 pm 15:35 Sunny 65 18.5 43 6.1 44 44 NNW 21 33 29.70 1006 10 16 N/A
3:55 pm 15:55 Sunny 64 17.9 43 6.2 46 46 NNW 21 33 29.71 1006 10 16 N/A
4:15 pm 16:15 Sunny 63 17.1 43 6.2 49 49 NNW 20 31 29.73 1007 10 16 N/A
4:35 pm 16:35 Mostly Cloudy 63 17.4 43 6.3 48 48 NW 14 22 29.75 1007 10 16 N/A
4:55 pm 16:55 Partly Cloudy 62 16.8 43 6.2 50 50 NW 17 28 29.76 1008 10 16 N/A
5:15 pm 17:15 Sunny 63 17.1 43 6.1 49 49 NNW 17 28 29.77 1008 10 16 N/A
5:35 pm 17:35 Sunny 62 16.7 43 6 49 49 NNW 13 20 29.77 1008 10 16 N/A
5:55 pm 17:55 Mostly Cloudy 62 16.6 42 5.7 49 49 NNW 18 30 29.78 1009 10 16 N/A
6:15 pm 18:15 Partly Cloudy 60 15.5 42 5.5 52 52 NNW 12 19 29.80 1009 10 16 N/A
6:35 pm 18:35 Partly Cloudy 58 14.2 41 5.1 55 55 NW 10 17 29.81 1010 10 16 N/A
6:55 pm 18:55 Partly Cloudy 55 12.6 41 5.1 61 61 NW 8 13 29.85 1011 10 16 N/A
7:15 pm 19:15 Partly Cloudy 53 11.7 41 5 64 64 NW 10 17 29.87 1011 10 16 N/A
7:35 pm 19:35 Mostly Cloudy 55 12.6 40 4.7 59 59 NW 10 17 29.87 1011 10 16 N/A
7:55 pm 19:55 Mostly Cloudy 51 10.6 41 5 69 69 N 8 13 29.91 1013 10 16 N/A
8:15 pm 20:15 Partly Cloudy 49 9.5 42 5.7 77 77 NNE 7 11 29.94 1014 10 16 N/A
8:35 pm 20:35 Clear 47 8.5 42 5.6 82 82 NNE 8 13 29.97 1015 10 16 N/A
8:55 pm 20:55 Clear 45 7 40 4.6 85 85 N 6 9 29.98 1015 10 16 N/A
9:15 pm 21:15 Clear 45 7.2 41 5.1 87 87 NNE 5 7 29.97 1015 10 16 N/A
9:35 pm 21:35 Clear 44 6.6 41 4.9 89 89 NNE 7 11 29.97 1015 10 16 N/A
9:55 pm 21:55 Clear 44 6.5 40 4.7 88 88 NNE 5 7 29.98 1015 10 16 N/A
10:15 pm 22:15 Clear 43 6.2 40 4.4 88 88 NNE 5 7 30.01 1016 10 16 N/A
10:35 pm 22:35 Clear 43 6 40 4.4 90 90 NNE 6 9 30.01 1016 10 16 N/A
10:55 pm 22:55 Clear 41 5.1 39 3.8 91 91 NE 8 13 30.01 1016 10 16 N/A
11:15 pm 23:15 Clear 41 5.1 39 4 93 93 N N/A 30.04 1017 10 16 N/A
11:35 pm 23:35 Clear 38 3.3 36 2.4 94 94 WNW 5 7 30.05 1018 10 16 N/A
11:55 pm 23:55 Clear 37 2.6 36 2 96 96 NW 5 7 30.07 1018 10 16 N/A

Powered by AerisWeather